Regional Weather Roundup
Issued by NWS Kansas City/Pleasant Hill, MO

Home | Current Version | Previous Version | Text Only | Print | Product List | Glossary On
Versions: 1 2 3 4 5 6 7 8 9 10 11 12 13 14 15 16 17 18 19 20 21 22 23 24 25 26 27 28 29 30 31 32 33 34 35 36 37 38 39 40 41 42 43 44 45 46 47 48 49 50
000
ASUS43 KEAX 311310
RWREAX

WEATHER ROUNDUP FOR EASTERN KANSAS AND NORTHWEST MISSOURI
NATIONAL WEATHER SERVICE KANSAS CITY/PLEASANT HILL MO
800 AM CDT MON AUG 31 2015

KSZ040-057-103>105-MOZ028-029-037-043-311400-
...KANSAS CITY METROPOLITAN AREA...

CITY           SKY/WX    TMP DP  RH WIND       PRES   REMARKS
K.C. INTL      PTSUNNY   71  70  96 S6        29.99R FOG
K.C. DOWNTOWN  PTSUNNY   76  71  85 SW3       29.98R
LEES SUMMIT    SUNNY     72  69  90 S7        30.00R FOG
OLATHE - IXD   MOSUNNY   71  70  96 S6        30.00R FOG
OLATHE - OJC   MOSUNNY   70  69  97 S6        29.99R FOG
LAWRENCE       PTSUNNY   68  67  96 CALM      29.98S FOG

$$

MOZ001>008-011>017-020>025-030>033-038>040-044>046-053-054-311400-
...NORTHERN AND CENTRAL MISSOURI...

CITY           SKY/WX    TMP DP  RH WIND       PRES   REMARKS
ST. JOSEPH     MOSUNNY   68  67  96 CALM      29.98R FOG
MOSBY          SUNNY     70  70 100 CALM      29.99R FOG
WARRENSBURG    SUNNY     70  68  94 S5        30.00S
WHITEMAN AFB   SUNNY     72  71  96 S6        30.00R
CLINTON        SUNNY     73  72  94 S8        30.02R
SEDALIA        SUNNY     73  69  87 S8        30.03R
WARSAW         NOT AVBL
CHILLICOTHE      N/A     72  71  97 SE3       30.01R
KIRKSVILLE     SUNNY     71  68  90 SE3       30.04R FOG

$$

MOZ041-047>049-056>058-063>065-088>090-097-311400-
...EASTERN AND SOUTHERN MISSOURI...

CITY           SKY/WX    TMP DP  RH WIND       PRES   REMARKS
ST. LOUIS INTL PTSUNNY   77  69  76 S5        30.07R
SPIRIT OF STL  MOSUNNY   75  71  87 CALM      30.05R
COLUMBIA       SUNNY     72  70  93 S6        30.04R
JEFFERSON CITY SUNNY     73  69  87 SE3       30.04R
ROLLA          MOSUNNY   72  67  84 S10       30.06R
OSAGE BEACH    SUNNY     72  66  83 SE5       30.05R
SPRINGFIELD    MOSUNNY   72  67  84 SE9       30.05R
BRANSON        MOSUNNY   72  66  83 SE8       30.08R
JOPLIN         SUNNY     73  67  81 S9        30.02R
WEST PLAINS    CLOUDY    71  68  90 S5        30.11R FOG

$$

IAZ060-094-KSZ022-034>040-054-083-096-NEZ052-066-093-311400-
...KANSAS...SOUTHEAST NEBRASKA AND IOWA...

CITY           SKY/WX    TMP DP  RH WIND       PRES   REMARKS
TOPEKA         MOSUNNY   67  67 100 CALM      29.98R FOG
MANHATTAN      SUNNY     65  65 100 CALM      29.96R FOG
EMPORIA        FOG       65  65 100 S7        29.98R VSB 1/4
CHANUTE        SUNNY     69  68  96 SE5       30.00R FOG
WICHITA        PTSUNNY   71  67  87 SE7       29.96R
OMAHA          MOSUNNY   67  67 100 S6        29.96R FOG
LINCOLN        SUNNY     64  64 100 SE3       29.97R FOG
FALLS CITY     MOSUNNY   67  66  97 SE3       29.97R FOG
LAMONI         MOSUNNY   69  68  96 SE5       30.00R FOG
DES MOINES     SUNNY     69  65  86 SE9       29.98S FOG

$$




USA.gov is the U.S. government's official web portal to all federal, state and local government web resources and services.